Terminal Aerodrome Forecast
Issued by NWS Springfield, MO

Home | Current Version | Previous Version | Text Only | Print | Product List | Glossary On
Versions: 1 2 3 4 5 6 7 8 9 10 11 12
000
FTUS43 KSGF 221100
TAFSGF
TAF
KSGF 221129Z 2212/2312 17008KT P6SM SKC WS020/24040KT
     FM221400 22012G20KT P6SM SKC
     FM230100 18008KT P6SM SKC=

USA.gov is the U.S. government's official web portal to all federal, state and local government web resources and services.